| time (UTC) | temp F | wind direction | speed MPH | gust MPH | rain 1hr in | rain 24hr in | rain mn in | humidity % | barometer mb |
| 20260901074620 | 81 | 157 | 3.0 | 5.0 | 0.00 | 0.00 | 0.00 | 54 | 1015.7 |
| 20260901072619 | 81 | 157 | 4.0 | 4.0 | 0.00 | 0.00 | 0.00 | 53 | 1015.7 |
| 20260901071719 | 81 | 157 | 4.0 | 5.0 | 0.00 | 0.00 | 0.00 | 52 | 1015.6 |
| 20260901065719 | 81 | 135 | 3.0 | 4.0 | 0.00 | 0.00 | 0.00 | 52 | 1015.5 |
| 20260901064720 | 81 | 135 | 2.0 | 4.0 | 0.00 | 0.00 | 0.00 | 51 | 1015.4 |
| 20260901063734 | 81 | 112 | 0.0 | 1.0 | 0.00 | 0.00 | 0.00 | 51 | 1015.5 |
| 20260901061818 | 81 | 157 | 2.0 | 4.0 | 0.00 | 0.00 | 0.00 | 51 | 1015.2 |
| 20260901060822 | 81 | 187 | 2.0 | 4.0 | 0.00 | 0.00 | 0.00 | 51 | 1015.1 |
| 20260901055919 | 82 | 172 | 2.0 | 4.0 | 0.00 | 0.00 | 0.00 | 50 | 1015.0 |
| 20260901054920 | 82 | 174 | 3.0 | 4.0 | 0.00 | 0.00 | 0.00 | 51 | 1015.0 |
| 20260901053936 | 82 | 157 | 1.0 | 1.0 | 0.00 | 0.00 | 0.00 | 49 | 1014.9 |
| 20260901053018 | 83 | 157 | 3.0 | 4.0 | 0.00 | 0.00 | 0.00 | 50 | 1014.8 |
| 20260901052020 | 83 | 157 | 3.0 | 3.0 | 0.00 | 0.00 | 0.00 | 50 | 1014.7 |
| 20260901051019 | 84 | 157 | 3.0 | 5.0 | 0.00 | 0.00 | 0.00 | 49 | 1014.6 |
| 20260901050039 | 84 | 157 | 3.0 | 4.0 | 0.00 | 0.00 | 0.00 | 48 | 1014.7 |
| 20260901045021 | 85 | 157 | 3.0 | 4.0 | 0.00 | 0.00 | 0.00 | 47 | 1014.6 |
| 20260901043121 | 85 | 157 | 5.0 | 6.0 | 0.00 | 0.00 | 0.00 | 46 | 1014.7 |
| 20260901042139 | 85 | 157 | 4.0 | 5.0 | 0.00 | 0.00 | 0.00 | 47 | 1014.6 |
| 20260901041239 | 85 | 157 | 3.0 | 4.0 | 0.00 | 0.00 | 0.00 | 47 | 1014.6 |
| 20260901035340 | 86 | 157 | 4.0 | 5.0 | 0.00 | 0.00 | 0.00 | 45 | 1014.7 |
| 20260901034322 | 86 | 157 | 3.0 | 4.0 | 0.00 | 0.00 | 0.00 | 45 | 1014.6 |
| 20260901032324 | 87 | 157 | 2.0 | 4.0 | 0.00 | 0.00 | 0.00 | 45 | 1014.6 |
| 20260901030339 | 88 | 159 | 3.0 | 5.0 | 0.00 | 0.00 | 0.00 | 44 | 1014.5 |
| 20260901025323 | 88 | 157 | 4.0 | 5.0 | 0.00 | 0.00 | 0.00 | 43 | 1014.4 |
| 20260901024322 | 88 | 157 | 3.0 | 4.0 | 0.00 | 0.00 | 0.00 | 44 | 1014.3 |
| 20260901021322 | 89 | 157 | 4.0 | 5.0 | 0.00 | 0.00 | 0.00 | 42 | 1014.0 |
| 20260901020324 | 90 | 157 | 3.0 | 4.0 | 0.00 | 0.00 | 0.00 | 42 | 1013.8 |
| 20260901015421 | 90 | 157 | 3.0 | 4.0 | 0.00 | 0.00 | 0.00 | 41 | 1013.6 |
| 20260901013421 | 91 | 135 | 4.0 | 5.0 | 0.00 | 0.00 | 0.00 | 39 | 1013.6 |
| 20260901011521 | 92 | 157 | 4.0 | 5.0 | 0.00 | 0.00 | 0.00 | 38 | 1013.5 |
| 20260901005622 | 94 | 156 | 5.0 | 7.0 | 0.00 | 0.00 | 0.00 | 35 | 1013.3 |
| 20260901004621 | 95 | 145 | 6.0 | 8.0 | 0.00 | 0.00 | 0.00 | 35 | 1013.4 |
| 20260901003621 | 96 | 152 | 7.0 | 10.0 | 0.00 | 0.00 | 0.00 | 33 | 1013.3 |
| 20260901002622 | 96 | 151 | 4.0 | 6.0 | 0.00 | 0.00 | 0.00 | 34 | 1013.4 |
| 20260901001721 | 96 | 153 | 5.0 | 7.0 | 0.00 | 0.00 | 0.00 | 34 | 1013.2 |
| 20260901000738 | 96 | 147 | 5.0 | 10.0 | 0.00 | 0.00 | 0.00 | 34 | 1013.2 |
| 20260831235737 | 96 | 145 | 5.0 | 6.0 | 0.00 | 0.00 | 0.00 | 34 | 1013.3 |
| 20260831234822 | 96 | 145 | 5.0 | 8.0 | 0.00 | 0.00 | 0.00 | 33 | 1013.3 |
| 20260831233823 | 97 | 150 | 7.0 | 10.0 | 0.00 | 0.00 | 0.00 | 32 | 1013.1 |
| 20260831232821 | 98 | 157 | 6.0 | 8.0 | 0.00 | 0.00 | 0.00 | 31 | 1013.3 |
| 20260831231823 | 99 | 154 | 4.0 | 7.0 | 0.00 | 0.00 | 0.00 | 29 | 1013.2 |
| 20260831230822 | 99 | 156 | 6.0 | 9.0 | 0.00 | 0.00 | 0.00 | 29 | 1013.2 |
| 20260831225821 | 98 | 105 | 2.0 | 7.0 | 0.00 | 0.00 | 0.00 | 30 | 1013.2 |
| 20260831224822 | 98 | 136 | 9.0 | 15.0 | 0.00 | 0.00 | 0.00 | 30 | 1013.3 |
| 20260831223921 | 99 | 152 | 10.0 | 14.0 | 0.00 | 0.00 | 0.00 | 29 | 1013.4 |
| 20260831222922 | 98 | 146 | 2.0 | 7.0 | 0.00 | 0.00 | 0.00 | 31 | 1013.3 |
| 20260831221920 | 97 | 116 | 4.0 | 8.0 | 0.00 | 0.00 | 0.00 | 31 | 1013.5 |
| 20260831220923 | 97 | 163 | 4.0 | 7.0 | 0.00 | 0.00 | 0.00 | 32 | 1013.6 |
| 20260831215922 | 97 | 140 | 4.0 | 7.0 | 0.00 | 0.00 | 0.00 | 32 | 1013.6 |
| 20260831214923 | 97 | 138 | 4.0 | 7.0 | 0.00 | 0.00 | 0.00 | 32 | 1013.8 |
| 20260831212121 | 99 | 157 | 11.0 | 14.0 | 0.00 | 0.00 | 0.00 | 31 | 1014.0 |
| 20260831205221 | 97 | 162 | 3.0 | 6.0 | 0.00 | 0.00 | 0.00 | 32 | 1014.3 |
| 20260831204237 | 98 | 156 | 10.0 | 12.0 | 0.00 | 0.00 | 0.00 | 32 | 1014.5 |
| 20260831203322 | 98 | 160 | 6.0 | 11.0 | 0.00 | 0.00 | 0.00 | 31 | 1014.6 |
| 20260831202420 | 98 | 176 | 7.0 | 12.0 | 0.00 | 0.00 | 0.00 | 32 | 1014.7 |
| 20260831201423 | 97 | 101 | 5.0 | 8.0 | 0.00 | 0.00 | 0.00 | 33 | 1014.8 |
| 20260831200422 | 98 | 148 | 7.0 | 12.0 | 0.00 | 0.00 | 0.00 | 32 | 1015.0 |
| 20260831193422 | 97 | 157 | 12.0 | 19.0 | 0.00 | 0.00 | 0.00 | 33 | 1015.3 |
| 20260831192421 | 98 | 165 | 10.0 | 17.0 | 0.00 | 0.00 | 0.00 | 31 | 1015.3 |
| 20260831190421 | 97 | 151 | 7.0 | 10.0 | 0.00 | 0.00 | 0.00 | 34 | 1015.5 |
| 20260831185520 | 97 | 159 | 11.0 | 15.0 | 0.00 | 0.00 | 0.00 | 35 | 1015.7 |
| 20260831184523 | 96 | 146 | 8.0 | 14.0 | 0.00 | 0.00 | 0.00 | 34 | 1015.7 |
| 20260831183620 | 96 | 118 | 7.0 | 11.0 | 0.00 | 0.00 | 0.00 | 36 | 1015.7 |
| 20260831181720 | 97 | 158 | 12.0 | 18.0 | 0.00 | 0.00 | 0.00 | 34 | 1016.0 |
| 20260831180740 | 96 | 165 | 8.0 | 18.0 | 0.00 | 0.00 | 0.00 | 35 | 1016.1 |
| 20260831175720 | 96 | 162 | 11.0 | 15.0 | 0.00 | 0.00 | 0.00 | 34 | 1016.3 |
| 20260831173720 | 97 | 198 | 7.0 | 13.0 | 0.00 | 0.00 | 0.00 | 36 | 1016.7 |
| 20260831172722 | 96 | 192 | 5.0 | 9.0 | 0.00 | 0.00 | 0.00 | 37 | 1016.8 |
| 20260831171723 | 95 | 164 | 6.0 | 11.0 | 0.00 | 0.00 | 0.00 | 37 | 1017.0 |
| 20260831170720 | 95 | 204 | 4.0 | 9.0 | 0.00 | 0.00 | 0.00 | 37 | 1017.0 |
| 20260831165722 | 95 | 159 | 3.0 | 8.0 | 0.00 | 0.00 | 0.00 | 38 | 1017.1 |
| 20260831164821 | 94 | 168 | 4.0 | 7.0 | 0.00 | 0.00 | 0.00 | 39 | 1017.0 |
| 20260831163820 | 94 | 162 | 12.0 | 16.0 | 0.00 | 0.00 | 0.00 | 38 | 1017.0 |
| 20260831162822 | 94 | 157 | 9.0 | 11.0 | 0.00 | 0.00 | 0.00 | 38 | 1017.1 |
| 20260831161821 | 93 | 171 | 9.0 | 12.0 | 0.00 | 0.00 | 0.00 | 41 | 1017.2 |
| 20260831155922 | 92 | 189 | 6.0 | 10.0 | 0.00 | 0.00 | 0.00 | 42 | 1017.3 |
| 20260831154923 | 91 | 213 | 9.0 | 15.0 | 0.00 | 0.00 | 0.00 | 43 | 1017.1 |
| 20260831154020 | 90 | 177 | 5.0 | 9.0 | 0.00 | 0.00 | 0.00 | 45 | 1017.2 |
| 20260831153021 | 90 | 215 | 10.0 | 14.0 | 0.00 | 0.00 | 0.00 | 46 | 1017.0 |
| 20260831152120 | 89 | 197 | 8.0 | 13.0 | 0.00 | 0.00 | 0.00 | 47 | 1016.9 |
| 20260831151120 | 89 | 199 | 7.0 | 14.0 | 0.00 | 0.00 | 0.00 | 50 | 1016.9 |
| 20260831150121 | 88 | 192 | 7.0 | 16.0 | 0.00 | 0.00 | 0.00 | 50 | 1017.0 |
| 20260831144239 | 87 | 196 | 6.0 | 8.0 | 0.00 | 0.00 | 0.00 | 55 | 1017.0 |
| 20260831143321 | 86 | 199 | 7.0 | 10.0 | 0.00 | 0.00 | 0.00 | 56 | 1017.0 |
| 20260831142420 | 86 | 195 | 7.0 | 12.0 | 0.00 | 0.00 | 0.00 | 58 | 1017.1 |
| 20260831141519 | 85 | 163 | 6.0 | 12.0 | 0.00 | 0.00 | 0.00 | 60 | 1017.0 |
| 20260831140520 | 84 | 190 | 8.0 | 12.0 | 0.00 | 0.00 | 0.00 | 62 | 1016.9 |
| 20260831134620 | 82 | 174 | 5.0 | 10.0 | 0.00 | 0.00 | 0.00 | 65 | 1016.7 |
| 20260831133622 | 81 | 180 | 5.0 | 7.0 | 0.00 | 0.00 | 0.00 | 68 | 1016.8 |
| 20260831132620 | 80 | 162 | 5.0 | 12.0 | 0.00 | 0.00 | 0.00 | 69 | 1016.4 |
| 20260831131636 | 79 | 157 | 6.0 | 9.0 | 0.00 | 0.00 | 0.00 | 71 | 1016.4 |
| 20260831130635 | 78 | 160 | 7.0 | 10.0 | 0.00 | 0.00 | 0.00 | 73 | 1016.1 |
| 20260831125721 | 77 | 159 | 4.0 | 7.0 | 0.00 | 0.00 | 0.00 | 75 | 1016.1 |
| 20260831124720 | 76 | 164 | 4.0 | 7.0 | 0.00 | 0.00 | 0.00 | 76 | 1015.9 |
| 20260831123735 | 76 | 157 | 4.0 | 7.0 | 0.00 | 0.00 | 0.00 | 77 | 1015.9 |
| 20260831122820 | 75 | 159 | 4.0 | 7.0 | 0.00 | 0.00 | 0.00 | 78 | 1015.8 |
| 20260831121823 | 75 | 162 | 4.0 | 6.0 | 0.00 | 0.00 | 0.00 | 77 | 1015.7 |
| 20260831120920 | 75 | 157 | 4.0 | 7.0 | 0.00 | 0.00 | 0.00 | 77 | 1015.5 |
| 20260831115920 | 75 | 159 | 4.0 | 7.0 | 0.00 | 0.00 | 0.00 | 77 | 1015.4 |
| 20260831114021 | 76 | 156 | 2.0 | 5.0 | 0.00 | 0.00 | 0.00 | 75 | 1015.3 |
| 20260831113020 | 76 | 164 | 3.0 | 6.0 | 0.00 | 0.00 | 0.00 | 74 | 1015.1 |
| 20260831112021 | 76 | 157 | 4.0 | 6.0 | 0.00 | 0.00 | 0.00 | 74 | 1015.1 |
| 20260831111035 | 76 | 157 | 4.0 | 5.0 | 0.00 | 0.00 | 0.00 | 75 | 1015.0 |
| 20260831103119 | 76 | 167 | 4.0 | 7.0 | 0.00 | 0.00 | 0.00 | 71 | 1014.9 |
| 20260831102120 | 77 | 157 | 3.0 | 6.0 | 0.00 | 0.00 | 0.00 | 70 | 1015.0 |
| 20260831101121 | 77 | 157 | 3.0 | 4.0 | 0.00 | 0.00 | 0.00 | 69 | 1015.0 |
| 20260831100136 | 77 | 157 | 4.0 | 7.0 | 0.00 | 0.00 | 0.00 | 69 | 1014.9 |
| 20260831095220 | 77 | 158 | 3.0 | 4.0 | 0.00 | 0.00 | 0.00 | 68 | 1014.8 |
| 20260831092319 | 79 | 157 | 2.0 | 4.0 | 0.00 | 0.00 | 0.00 | 64 | 1014.7 |
| 20260831091337 | 79 | 177 | 3.0 | 5.0 | 0.00 | 0.00 | 0.00 | 65 | 1014.7 |
| 20260831090319 | 79 | 160 | 3.0 | 6.0 | 0.00 | 0.00 | 0.00 | 63 | 1014.6 |
| 20260831085322 | 80 | 157 | 2.0 | 4.0 | 0.00 | 0.00 | 0.00 | 62 | 1014.5 |
| 20260831084322 | 80 | 163 | 3.0 | 5.0 | 0.00 | 0.00 | 0.00 | 62 | 1014.6 |
| 20260831083338 | 81 | 176 | 4.0 | 6.0 | 0.00 | 0.00 | 0.00 | 61 | 1014.6 |
| 20260831080419 | 81 | 182 | 4.0 | 6.0 | 0.00 | 0.00 | 0.00 | 60 | 1014.6 |
| 20260831075420 | 81 | 179 | 5.0 | 10.0 | 0.00 | 0.00 | 0.00 | 59 | 1014.5 |